Meteo Giornale » Osservazioni meteo Stati Uniti (USA) » Lawrence
ore: 15:54 - Osservazioni Meteo Lawrence
Lat. 42° 42' N Lon. 71° 7' W Alt. 45 metri s.l.m.
19 °C
Coperto
Temp. 24 Ore
17 °C
27 °C
Est/Nord-Est
11.1 Km/h
Dew point 18 °C
Umidità 93 %
Visibilità 10 Km
Il sole sorge alle ore 06:09
Il sole tramonta alle ore 19:19
| Data e Ora | Cielo e Fenomeni | T °C | DP °C | Um. % | Pres. hPa | Vis. km | Vento km/h | |
|---|---|---|---|---|---|---|---|---|
| Oggi h: 15:54 | Coperto | 19 | 18 | 93 | 1018 | 10 | E/NE 11.1 | |
| Oggi h: 14:54 | Pioggia | 19 | 17 | 88 | 1018 | 10 | E/NE 9.3 | |
| Oggi h: 13:54 | Pioggia | 18 | 17 | 93 | 1018 | 13 | E 11.1 | |
| Oggi h: 12:54 | Coperto | 18 | 17 | 93 | 1018 | 11 | E/NE 13 | |
| Oggi h: 12:01 | Coperto | 18 | 17 | 93 | 1018 | 10 | NE 9.3 | |
| Oggi h: 11:54 | Coperto | 18 | 17 | 93 | 1018 | 10 | N 5.5 | |
| Oggi h: 10:54 | Coperto | 18 | 17 | 93 | 1018 | 10 | E/NE 7.4 | |
| Oggi h: 10:06 | Pioggia | 17 | 17 | 100 | 1018 | 10 | E 9.3 | |
| Oggi h: 09:54 | Pioggia | 17 | 16 | 93 | 1018 | 10 | E/NE 11.1 | |
| Oggi h: 09:32 | Pioggia Foschia | 17 | 16 | 93 | 1019 | 5 | N/NE 13 | |
| Oggi h: 09:24 | Pioggia Foschia | 17 | 16 | 93 | 1019 | 5 | N/NE 14.8 | |
| Oggi h: 09:13 | Pioggia Foschia | 17 | 17 | 100 | 1019 | 2 | NE 14.8 | |
| Oggi h: 09:02 | Pioggia Foschia | 17 | 17 | 100 | 1018 | 2 | N/NE 13 | |
| Oggi h: 08:54 | Pioggia Foschia | 17 | 17 | 100 | 1019 | 5 | NE 11.1 | |
| Oggi h: 08:38 | Pioggia Foschia | 18 | 17 | 93 | 1019 | 6 | N/NE 7.4 | |
| Oggi h: 07:54 | Pioggia | 19 | 18 | 93 | 1018 | 10 | N 0 | |
| Oggi h: 07:32 | Pioggia | 19 | 18 | 93 | 1018 | 10 | N 0 | |
| Oggi h: 07:23 | Pioggia | 19 | 18 | 93 | 1018 | 13 | N 0 | |
| Oggi h: 07:01 | Pioggia | 19 | 17 | 88 | 1018 | 13 | N 0 | |
| Oggi h: 06:54 | Pioggia | 19 | 17 | 88 | 1018 | 11 | N 5.5 | |
| Oggi h: 05:54 | Coperto | 19 | 16 | 82 | 1017 | 10 | SO 7.4 | |
| Oggi h: 04:54 | Coperto | 19 | 16 | 82 | 1017 | 10 | S/SO 7.4 | |
| Oggi h: 03:54 | Coperto | 19 | 14 | 72 | 1018 | 10 | S/SO 9.3 | |
| Oggi h: 02:54 | Coperto | 20 | 14 | 68 | 1018 | 10 | S/SO 7.4 | |
| Oggi h: 01:54 | Coperto | 20 | 15 | 72 | 1018 | 10 | S/SO 9.3 | |
| Oggi h: 00:54 | Poco Nuvoloso | 19 | 16 | 82 | 1018 | 10 | S/SO 9.3 | |
| Ieri h: 23:54 | Coperto | 20 | 17 | 82 | 1018 | 10 | S/SO 9.3 | |
| Ieri h: 22:54 | Sereno | 21 | 16 | 73 | 1018 | 10 | S/SO 13 | |
| Ieri h: 21:54 | Sereno | 19 | 15 | 77 | 1018 | 10 | N 0 | |
| Ieri h: 20:54 | Sereno | 19 | 14 | 72 | 1018 | 10 | N 0 | |
| Ieri h: 19:54 | Sereno | 20 | 14 | 68 | 1018 | 10 | N 7.4 | |
| Ieri h: 18:54 | Sereno | 22 | 13 | 56 | 1019 | 10 | SE 9.3 | |
| Ieri h: 17:54 | Sereno | 23 | 13 | 53 | 1018 | 10 | S/SE 9.3 | |
| Ieri h: 16:54 | Molto Nuvoloso | 27 | 12 | 39 | 1019 | 10 | O/SO 11.1 | |



